This is the latest recevied weather packets stored in our database for station/object AD0YN. If no packets are shown the sender has not sent any weather packets the latest 10 day(s).
| Time | Temp. | Humidity | Pressure | Rain* | Wind** | Luminosity | Snow |
|---|---|---|---|---|---|---|---|
| 1777664237 | 17.22° C | 34% | 1016.7 hPa | 0 mm | - | 224 W/m² | - |
| 1777663936 | 16.11° C | 41% | 1016.7 hPa | 0 mm | - | 795 W/m² | - |
| 1777663633 | 16.11° C | 35% | 1016.6 hPa | 0 mm | - | 152 W/m² | - |
| 1777663330 | 16.11° C | 36% | 1016.9 hPa | 0 mm | - | 146 W/m² | - |
| 1777663027 | 17.22° C | 34% | 1016.6 hPa | 0 mm | - | 299 W/m² | - |
| 1777662725 | 17.22° C | 34% | 1016.7 hPa | 0 mm | - | 813 W/m² | - |
| 1777662421 | 16.11° C | 36% | 1016.9 hPa | 0 mm | - | 1024 W/m² | - |
| 1777662116 | 16.11° C | 36% | 1016.9 hPa | 0 mm | - | 276 W/m² | - |
| 1777661812 | 16.11° C | 34% | 1017.1 hPa | 0 mm | - | 276 W/m² | - |
| 1777661508 | 16.11° C | 39% | 1017 hPa | 0 mm | - | 308 W/m² | - |
| 1777661205 | 16.11° C | 36% | 1016.9 hPa | 0 mm | - | 354 W/m² | - |
| 1777660899 | 16.11° C | 36% | 1017 hPa | 0 mm | - | 325 W/m² | - |
| 1777660596 | 15.56° C | 36% | 1017 hPa | 0 mm | - | 338 W/m² | - |
| 1777660293 | 15.56° C | 38% | 1017.1 hPa | 0 mm | - | 295 W/m² | - |
| 1777659989 | 16.11° C | 37% | 1017.2 hPa | 0 mm | - | 280 W/m² | - |
| 1777659686 | 16.67° C | 34% | 1017.2 hPa | 0 mm | - | 299 W/m² | - |
| 1777659383 | 16.11° C | 40% | 1017.1 hPa | 0 mm | - | 524 W/m² | - |
| 1777659080 | 15.56° C | 38% | 1017.1 hPa | 0 mm | - | 351 W/m² | - |
| 1777658778 | 16.11° C | 35% | 1017.3 hPa | 0 mm | - | 234 W/m² | - |
| 1777658474 | 16.11° C | 42% | 1017.1 hPa | 0 mm | - | 278 W/m² | - |
| 1777658171 | 16.11° C | 37% | 1017.4 hPa | 0 mm | - | 356 W/m² | - |
| 1777657868 | 16.11° C | 38% | 1017.6 hPa | 0 mm | - | 382 W/m² | - |
| 1777657565 | 16.11° C | 35% | 1017.4 hPa | 0 mm | - | 578 W/m² | - |
| 1777657262 | 16.67° C | 36% | 1017.6 hPa | 0 mm | - | 660 W/m² | - |
| 1777656959 | 15.56° C | 38% | 1017.5 hPa | 0 mm | - | 916 W/m² | - |
* Rain latest hour (hover to see other rain measurements)
** Current wind speed in m/s (hover to see current wind gust speed)